Tracking 23726 objects as of 16-Oct-2021
HD Live streaming from Space Station
objects crossing your sky now

SL-14 DEB

Track SL-14 DEB now!
10-day predictions


NORAD ID: 45347
Int'l Code: 1991-056CG
Perigee: 932.9 km
Apogee: 1,201.6 km
Inclination: 82.7 °
Period: 106.4 minutes
Semi major axis: 7438 km
RCS: Unknown
Launch date: August 15, 1991
Source: Commonwealth of Independent States (former USSR) (CIS)
Launch site: PLESETSK MISSILE AND SPACE COMPLEX (PKMTR)

Note: This is SATELLITE DEBRIS
aabbcc
Your satellite tracking list
Your tracking list is empty




NASA's NSSDC Master Catalog

Two Line Element Set (TLE):
1 45347U 91056CG  21288.62238600  .00003943  00000-0  52933-2 0  9995
2 45347  82.6572 243.6769 0180570 295.0999  63.1500 13.53305967 82216
Source of the keplerian elements: AFSPC